Wind_Speed
9 9 9 9 9 9 9 8 9 10 11 11 11 11 12 13 14 15 16 18 19 21 22 23 24 25 26 27 28 29 29 30 31 32 32 33 34 34 34 33 32 32 32 32
9 9 9 9 9 9 9 9 10 10 11 11 12 12 13 13 14 16 17 19 20 21 23 24 25 25 27 28 29 30 30 31 32 32 33 34 34 35 34 33 33 33 33 33
8 9 9 9 10 10 10 10 10 11 12 12 12 13 13 14 15 16 18 19 21 22 23 24 25 26 28 28 29 30 31 32 32 33 34 35 36 35 35 34 34 33 33 33
8 9 8 10 10 10 10 11 11 12 12 12 12 13 13 14 15 16 18 20 21 22 23 25 26 27 28 29 30 31 32 33 34 35 36 37 36 36 36 35 35 34 33 32
10 9 10 11 10 10 11 11 11 12 12 12 12 13 13 14 15 17 19 20 21 23 24 25 27 28 29 30 30 31 32 33 35 36 36 37 37 37 37 36 35 34 33 32
11 11 10 13 11 11 11 11 12 12 12 12 13 13 14 15 16 18 19 20 22 23 24 26 27 28 29 30 31 32 33 35 35 36 37 37 37 37 36 36 35 34 33 32
12 11 12 14 12 12 11 13 13 13 13 13 13 14 15 16 17 18 20 21 22 23 25 27 28 29 30 30 32 33 34 35 36 37 37 37 37 37 36 36 35 34 33 33
13 12 14 15 14 13 14 14 14 14 14 14 14 15 16 17 18 19 20 21 23 24 26 27 29 30 30 31 32 34 35 36 37 38 38 37 37 37 37 36 35 34 33 32
14 15 16 15 15 15 15 15 15 15 15 15 16 16 17 18 19 20 21 23 24 25 26 28 29 30 31 32 33 35 36 37 38 39 38 38 38 38 37 36 35 34 33 32
16 17 17 17 17 16 16 16 16 16 17 17 17 18 18 20 21 21 22 24 25 26 27 28 29 31 32 33 35 36 37 38 39 39 39 39 38 38 37 36 35 34 33 32
17 17 17 18 18 18 18 18 18 18 18 18 19 19 20 21 22 23 24 25 26 26 28 29 31 32 34 36 37 37 38 39 39 40 39 39 39 38 37 36 35 34 33 31
19 19 19 19 20 20 20 20 20 20 20 20 20 21 22 23 24 25 25 27 27 28 29 31 32 33 35 37 38 39 40 40 40 40 40 39 38 38 37 36 35 33 33 31
20 20 20 20 21 21 22 22 22 22 22 22 23 23 24 25 26 26 27 28 29 30 31 32 33 34 36 38 39 40 41 41 41 41 40 39 38 37 36 35 34 33 32 30
22 22 22 21 22 22 22 23 23 23 24 25 25 25 26 27 28 28 29 30 31 32 34 34 35 36 38 39 40 41 41 41 41 41 40 39 38 36 35 35 33 32 31 30
24 24 23 23 23 24 24 24 25 25 26 26 27 28 29 29 29 30 31 32 33 34 35 36 37 38 39 41 41 41 42 41 41 40 39 38 37 36 35 34 32 31 30 29
25 25 25 25 25 25 25 26 27 28 28 28 30 31 31 31 31 32 33 35 36 37 36 37 38 39 40 41 42 42 42 41 40 40 39 37 36 34 33 32 31 30 29 28
26 27 27 27 27 27 27 28 29 31 31 31 32 34 33 33 34 35 36 36 37 38 38 39 40 40 41 42 42 42 42 42 40 39 37 36 34 32 32 31 30 28 28 27
28 28 28 28 29 30 30 30 32 33 33 34 35 36 36 37 38 38 38 38 38 39 41 41 42 42 43 42 42 42 42 41 40 38 36 34 33 31 30 29 28 27 27 26
29 29 30 30 31 31 32 33 34 35 37 37 38 38 39 40 40 41 41 40 41 42 42 43 43 43 43 43 42 42 41 41 39 37 35 33 31 30 28 27 26 26 25 24
31 31 32 32 33 34 35 36 37 38 39 39 40 40 42 42 42 42 42 43 43 44 44 44 44 44 44 43 43 42 41 40 38 35 33 31 30 28 27 25 25 24 24 22
33 33 34 35 36 36 37 38 39 40 41 41 42 44 44 44 44 44 45 45 45 45 45 45 44 44 44 43 42 41 40 38 36 34 31 30 28 27 25 24 23 22 21 20
35 36 37 38 38 39 40 41 41 42 43 44 45 46 46 46 46 47 47 47 47 47 47 46 45 44 44 43 42 40 39 37 35 32 30 28 26 24 23 22 21 21 20 19
38 39 39 40 41 41 42 43 44 45 45 46 47 47 48 48 49 49 49 49 49 49 48 47 46 45 44 43 41 39 37 35 32 30 29 26 24 23 22 21 20 19 19 17
41 41 42 43 44 45 45 46 47 48 48 49 50 50 50 50 51 51 51 51 50 49 48 47 46 45 43 41 39 38 36 33 30 28 27 25 24 22 21 19 18 18 17 15
44 45 45 46 47 47 48 48 49 49 50 50 51 52 52 52 52 51 51 51 50 49 48 47 45 44 42 40 38 35 33 31 29 28 26 25 23 21 19 18 17 16 15 13
46 47 48 48 48 49 50 50 51 51 52 52 52 52 52 52 52 51 51 50 49 48 47 45 44 42 40 38 35 33 32 30 28 27 25 23 21 20 18 16 15 14 13 12
49 49 49 50 50 50 51 51 52 52 52 53 52 52 52 51 51 51 49 48 47 46 45 43 42 40 38 36 34 32 30 28 27 25 24 22 20 18 16 14 14 13 12 11
Wind_Direction
265 265 267 269 272 271 271 275 281 292 300 305 310 312 313 315 318 321 326 329 331 333 335 336 338 339 339 338 337 337 336 335 334 333 331 330 328 326 324 321 318 314 310 306
269 267 266 266 270 273 275 279 285 292 299 305 308 310 311 313 316 320 325 328 330 333 336 338 339 340 340 339 338 338 337 337 336 335 333 332 330 327 325 323 321 317 313 310
264 266 268 274 272 273 277 281 287 293 299 305 306 308 310 313 316 320 324 327 330 334 337 338 339 340 340 339 339 339 338 337 337 336 335 334 332 330 327 326 323 321 317 314
256 263 269 265 271 273 278 283 287 292 299 303 305 308 310 313 316 321 326 329 332 335 338 339 340 340 340 339 339 339 338 338 337 337 337 336 334 332 329 328 326 323 321 318
253 263 269 273 276 278 282 283 286 292 298 302 304 307 309 312 317 323 326 329 332 336 338 340 340 340 340 340 340 339 339 339 338 338 337 337 335 334 331 330 328 326 323 321
253 255 260 267 276 281 284 283 286 291 295 301 303 306 309 313 319 323 326 329 332 335 338 339 340 340 341 341 341 340 340 340 339 339 338 337 337 335 334 332 330 328 327 325
252 257 259 265 274 280 280 280 286 289 293 297 300 303 307 312 317 321 324 328 331 334 337 338 339 340 340 341 341 341 341 341 340 340 339 338 337 336 336 334 333 331 329 328
253 258 256 263 271 275 276 279 284 289 292 295 298 302 306 310 315 319 323 326 329 333 335 336 338 338 338 339 340 340 341 341 341 340 339 339 338 337 337 336 335 333 331 331
251 254 257 263 269 273 276 279 283 288 291 294 298 302 306 309 313 317 320 323 327 330 333 335 336 337 337 339 340 340 340 340 340 340 340 339 338 338 338 337 336 335 334 333
254 257 261 266 270 273 278 282 285 287 290 293 297 302 305 308 311 314 318 321 324 327 331 332 333 335 336 338 339 340 340 340 340 340 340 339 339 339 339 338 338 337 336 336
254 256 260 266 272 276 280 283 285 287 289 293 297 301 304 307 309 312 315 317 320 323 326 329 331 333 335 337 338 338 338 339 339 339 339 339 339 339 339 339 339 338 338 338
257 261 265 269 273 277 279 282 284 286 290 293 296 300 302 305 308 310 313 315 317 319 322 325 328 331 334 336 336 336 337 338 338 338 338 338 339 339 339 339 339 339 339 339
261 265 268 270 273 275 277 280 282 284 288 292 296 297 300 303 305 308 311 313 315 317 319 321 325 329 332 333 334 335 335 335 336 336 336 337 338 339 339 339 339 340 340 340
263 266 269 271 273 274 277 279 281 284 287 291 293 294 297 299 303 305 308 310 312 315 317 319 323 327 329 330 331 332 332 333 334 335 335 336 336 338 339 339 339 339 340 340
264 267 269 271 273 275 276 278 280 283 286 289 291 293 295 297 299 303 306 307 310 314 316 319 322 324 326 327 328 329 330 331 333 333 334 334 335 336 338 339 338 339 340 340
265 268 270 271 273 275 276 277 279 281 284 287 291 293 294 296 297 300 302 304 308 311 313 317 320 323 324 325 325 326 327 328 330 331 333 333 334 335 337 338 338 339 340 341
265 268 270 272 273 275 275 276 278 281 283 285 287 290 291 293 295 298 300 303 305 308 311 315 317 320 322 323 324 324 324 325 327 329 330 331 332 333 336 337 338 339 340 341
266 268 270 272 273 273 274 276 277 279 280 282 284 287 289 290 291 294 298 301 303 306 309 312 314 316 318 320 321 321 322 323 324 326 327 328 329 330 333 335 337 338 340 341
266 267 269 270 271 273 273 275 276 278 279 281 282 286 288 290 292 294 297 299 301 305 307 308 311 313 314 316 317 318 319 320 321 322 323 324 325 327 330 332 334 335 337 339
266 267 269 271 272 273 274 275 277 278 279 281 283 286 288 290 292 293 295 297 300 303 305 306 308 309 311 312 314 314 315 317 318 318 319 320 321 323 326 328 330 332 335 337
267 269 270 271 273 274 275 277 278 280 281 283 284 286 288 290 291 293 294 296 298 300 302 304 305 307 308 309 310 311 312 313 314 314 315 315 317 319 322 325 327 330 333 335
269 270 272 273 274 276 277 279 280 281 282 284 286 287 288 290 291 292 294 295 297 299 300 302 303 304 305 305 306 307 308 308 309 309 310 311 312 314 317 320 323 327 330 332
272 273 273 274 276 277 278 280 281 282 283 284 285 286 288 289 290 291 293 294 296 297 299 300 300 300 301 301 302 303 303 303 304 303 305 306 307 309 311 314 318 322 325 327
273 275 276 277 279 280 280 281 282 283 284 285 286 287 288 289 290 291 292 293 294 295 296 296 296 296 297 297 298 298 298 298 298 298 299 301 301 303 306 309 312 316 321 324
276 277 278 279 281 282 282 283 284 284 285 286 287 288 289 289 290 291 292 292 293 293 294 294 294 294 294 293 293 294 294 293 292 292 293 294 293 296 300 303 306 310 314 318
278 279 280 281 281 282 283 284 285 285 286 287 288 288 289 289 290 291 291 292 292 292 292 292 292 292 291 289 289 288 287 287 286 286 287 288 288 289 292 294 298 302 305 309
279 280 281 282 283 283 284 285 286 287 288 288 289 289 289 289 289 290 290 290 290 290 290 290 290 289 288 286 284 282 281 281 279 279 280 279 279 281 282 284 289 293 297 301
Height
5851 5851 5850 5850 5850 5850 5850 5850 5850 5849 5847 5845 5843 5841 5839 5837 5834 5832 5829 5825 5822 5817 5813 5808 5803 5798 5793 5787 5782 5776 5770 5764 5758 5752 5746 5739 5733 5726 5720 5714 5707 5702 5696 5691
5848 5848 5847 5847 5847 5847 5847 5846 5846 5845 5844 5842 5840 5838 5836 5834 5831 5829 5825 5822 5818 5814 5809 5804 5799 5794 5788 5783 5777 5771 5765 5759 5753 5746 5740 5733 5726 5719 5712 5706 5699 5693 5687 5682
5846 5845 5845 5845 5845 5844 5844 5843 5843 5842 5841 5838 5837 5835 5833 5830 5828 5825 5822 5818 5814 5810 5805 5800 5795 5790 5784 5779 5773 5766 5760 5754 5747 5741 5734 5727 5720 5712 5705 5698 5692 5685 5679 5673
5843 5844 5843 5844 5841 5841 5841 5840 5839 5838 5837 5835 5833 5831 5829 5827 5824 5822 5818 5815 5810 5806 5801 5796 5791 5786 5780 5774 5768 5762 5755 5749 5742 5735 5728 5721 5713 5706 5698 5691 5684 5677 5671 5664
5840 5841 5840 5840 5838 5838 5837 5837 5836 5834 5833 5831 5829 5828 5826 5823 5821 5818 5814 5811 5806 5802 5797 5792 5787 5781 5776 5770 5763 5757 5751 5744 5737 5730 5722 5715 5707 5699 5692 5684 5677 5670 5663 5657
5836 5837 5838 5837 5835 5834 5835 5833 5832 5830 5829 5828 5826 5824 5823 5820 5817 5814 5810 5807 5802 5798 5793 5788 5783 5777 5771 5765 5759 5752 5746 5739 5732 5724 5717 5709 5701 5693 5685 5678 5670 5663 5656 5649
5832 5833 5834 5832 5831 5831 5832 5831 5828 5826 5825 5824 5822 5821 5819 5815 5812 5809 5806 5802 5798 5794 5789 5784 5778 5773 5767 5761 5754 5748 5741 5734 5726 5719 5711 5703 5695 5687 5680 5672 5664 5657 5650 5642
5828 5829 5831 5827 5827 5827 5827 5825 5824 5822 5821 5819 5818 5816 5814 5811 5808 5805 5802 5798 5794 5789 5785 5780 5774 5768 5763 5756 5750 5743 5736 5729 5721 5713 5706 5698 5690 5682 5674 5666 5658 5651 5643 5636
5824 5826 5824 5823 5822 5822 5821 5820 5819 5818 5816 5815 5813 5811 5809 5806 5803 5800 5797 5793 5789 5785 5780 5775 5770 5764 5758 5752 5745 5738 5731 5724 5716 5708 5700 5692 5684 5676 5668 5660 5653 5645 5638 5631
5818 5818 5818 5818 5817 5817 5816 5815 5814 5813 5811 5810 5808 5806 5804 5801 5798 5795 5792 5788 5784 5780 5775 5770 5765 5759 5753 5747 5740 5733 5726 5718 5710 5702 5695 5687 5679 5671 5663 5655 5647 5640 5632 5625
5812 5813 5813 5812 5812 5811 5810 5810 5809 5807 5806 5804 5803 5801 5798 5796 5793 5790 5787 5783 5779 5774 5770 5765 5760 5754 5748 5741 5735 5728 5720 5713 5705 5697 5689 5681 5674 5666 5658 5650 5643 5635 5628 5621
5807 5807 5807 5807 5806 5806 5805 5804 5803 5802 5800 5799 5797 5795 5792 5790 5787 5784 5781 5777 5773 5769 5764 5759 5754 5748 5742 5736 5729 5722 5715 5707 5699 5692 5684 5676 5669 5661 5653 5646 5638 5631 5624 5617
5800 5800 5801 5801 5800 5799 5799 5798 5797 5796 5794 5792 5790 5788 5786 5784 5781 5778 5775 5771 5767 5763 5758 5753 5748 5742 5736 5730 5723 5716 5709 5702 5694 5686 5679 5671 5664 5656 5649 5641 5634 5627 5620 5613
5793 5794 5794 5794 5793 5793 5792 5791 5790 5789 5787 5786 5784 5781 5779 5777 5774 5771 5768 5764 5760 5756 5751 5746 5741 5736 5730 5723 5717 5710 5703 5696 5688 5681 5673 5666 5659 5652 5644 5637 5630 5623 5617 5610
5786 5787 5787 5787 5786 5786 5785 5784 5783 5782 5780 5778 5776 5774 5772 5769 5767 5764 5760 5757 5753 5749 5744 5739 5734 5729 5723 5717 5710 5703 5697 5690 5683 5675 5668 5661 5654 5647 5640 5633 5626 5620 5613 5607
5778 5778 5779 5779 5778 5778 5777 5776 5775 5774 5772 5770 5768 5766 5764 5761 5758 5756 5753 5749 5745 5741 5737 5732 5727 5721 5716 5709 5703 5696 5690 5684 5676 5669 5663 5656 5649 5643 5636 5630 5623 5617 5611 5605
5770 5770 5770 5770 5770 5769 5769 5768 5766 5765 5763 5762 5760 5758 5755 5753 5750 5747 5744 5741 5737 5733 5728 5723 5718 5713 5708 5702 5696 5689 5683 5677 5670 5664 5657 5651 5644 5639 5633 5627 5620 5614 5609 5603
5762 5762 5762 5761 5761 5760 5760 5758 5757 5756 5754 5752 5750 5748 5746 5743 5740 5738 5735 5732 5728 5724 5719 5715 5710 5705 5699 5694 5688 5682 5676 5670 5664 5657 5651 5645 5640 5634 5629 5623 5617 5612 5606 5601
5752 5752 5752 5752 5751 5750 5750 5749 5747 5746 5744 5742 5740 5738 5735 5733 5730 5728 5725 5721 5718 5714 5710 5705 5700 5696 5690 5685 5679 5674 5668 5662 5657 5651 5646 5640 5635 5630 5625 5620 5615 5609 5604 5599
5743 5742 5742 5742 5741 5740 5739 5738 5737 5735 5733 5731 5729 5727 5725 5722 5720 5717 5714 5710 5707 5703 5699 5694 5690 5685 5680 5675 5670 5665 5660 5655 5649 5644 5639 5635 5630 5625 5621 5616 5611 5606 5602 5597
5732 5732 5731 5731 5730 5729 5728 5727 5725 5724 5722 5720 5718 5715 5713 5710 5707 5704 5701 5698 5695 5691 5687 5683 5679 5674 5670 5665 5660 5656 5651 5646 5642 5637 5633 5629 5624 5620 5616 5612 5608 5603 5599 5594
5721 5721 5720 5719 5718 5717 5716 5714 5713 5711 5709 5707 5705 5702 5700 5697 5694 5691 5688 5685 5682 5678 5674 5671 5667 5663 5658 5654 5650 5646 5642 5637 5633 5630 5626 5622 5619 5615 5611 5608 5604 5600 5596 5592
5709 5708 5708 5707 5706 5705 5703 5702 5700 5698 5696 5694 5691 5689 5686 5683 5680 5677 5675 5671 5668 5664 5661 5657 5654 5650 5646 5642 5639 5635 5632 5628 5625 5622 5618 5615 5612 5609 5606 5603 5600 5596 5593 5590
5697 5696 5695 5694 5693 5691 5690 5688 5686 5684 5681 5679 5676 5674 5671 5668 5665 5662 5659 5656 5653 5650 5647 5644 5640 5637 5633 5630 5627 5624 5621 5619 5616 5613 5611 5608 5606 5603 5601 5598 5595 5593 5590 5587
5683 5682 5681 5680 5678 5677 5675 5673 5670 5668 5666 5663 5661 5658 5655 5652 5650 5647 5644 5641 5638 5635 5632 5629 5626 5623 5620 5618 5615 5613 5611 5609 5607 5604 5603 5601 5599 5597 5595 5593 5591 5589 5586 5584
5669 5668 5666 5665 5663 5661 5659 5657 5655 5652 5650 5647 5645 5642 5639 5636 5633 5630 5628 5625 5622 5619 5616 5614 5611 5609 5606 5604 5603 5601 5599 5598 5596 5595 5594 5593 5591 5590 5589 5588 5586 5585 5583 5581
5653 5652 5650 5649 5647 5645 5643 5640 5638 5635 5633 5630 5627 5625 5622 5619 5616 5613 5611 5608 5606 5603 5601 5599 5597 5595 5593 5591 5590 5589 5588 5587 5587 5586 5585 5585 5584 5583 5583 5582 5581 5580 5579 5577